Time,TemperatureF,DewpointF,PressureIn,WindDirection,WindDirectionDegrees,WindSpeedMPH,WindSpeedGustMPH,Humidity,HourlyPrecipIn,Conditions,Clouds,dailyrainin,SoftwareType,DateUTC
2014-10-24 00:08:00,58.9,46.0,30.05,NW,318,4.0,6.0,63,0.00,,,0.00,weatherlink.com 1.10,2014-10-24 05:08:00,
2014-10-24 00:23:00,59.1,47.0,30.05,NNW,333,5.0,5.0,65,0.00,,,0.00,weatherlink.com 1.10,2014-10-24 05:23:00,
2014-10-24 00:38:00,58.9,47.0,30.05,NW,319,1.0,6.0,65,0.00,,,0.00,weatherlink.com 1.10,2014-10-24 05:38:00,
2014-10-24 00:54:00,58.8,47.0,30.04,North,360,2.0,4.0,66,0.00,,,0.00,weatherlink.com 1.10,2014-10-24 05:54:00,
2014-10-24 01:09:00,58.7,47.0,30.05,NNE,19,2.0,3.0,65,0.00,,,0.00,weatherlink.com 1.10,2014-10-24 06:09:00,
2014-10-24 01:24:00,58.7,47.0,30.04,North,355,1.0,3.0,65,0.00,,,0.00,weatherlink.com 1.10,2014-10-24 06:24:00,
2014-10-24 01:39:00,58.3,47.0,30.05,WNW,302,4.0,5.0,66,0.00,,,0.00,weatherlink.com 1.10,2014-10-24 06:39:00,
2014-10-24 01:55:00,57.9,47.0,30.04,NNW,348,2.0,5.0,67,0.00,,,0.00,weatherlink.com 1.10,2014-10-24 06:55:00,
2014-10-24 02:09:00,58.0,47.0,30.04,North,360,2.0,5.0,66,0.00,,,0.00,weatherlink.com 1.10,2014-10-24 07:09:00,
2014-10-24 02:24:00,58.0,47.0,30.05,NW,322,1.0,6.0,67,0.00,,,0.00,weatherlink.com 1.10,2014-10-24 07:24:00,
2014-10-24 02:39:00,57.6,47.0,30.04,NNE,19,2.0,3.0,67,0.00,,,0.00,weatherlink.com 1.10,2014-10-24 07:39:00,
2014-10-24 02:54:00,57.2,47.0,30.04,NNW,336,1.0,4.0,68,0.00,,,0.00,weatherlink.com 1.10,2014-10-24 07:54:00,
2014-10-24 03:09:00,56.7,47.0,30.04,NNW,340,1.0,5.0,69,0.00,,,0.00,weatherlink.com 1.10,2014-10-24 08:09:00,
2014-10-24 03:24:00,56.5,46.0,30.04,NW,306,4.0,6.0,69,0.00,,,0.00,weatherlink.com 1.10,2014-10-24 08:24:00,
2014-10-24 03:39:00,56.4,46.0,30.04,North,360,2.0,8.0,69,0.00,,,0.00,weatherlink.com 1.10,2014-10-24 08:39:00,
2014-10-24 03:54:00,56.1,46.0,30.04,NNW,330,2.0,4.0,70,0.00,,,0.00,weatherlink.com 1.10,2014-10-24 08:54:00,
2014-10-24 04:09:00,55.9,46.0,30.03,North,10,2.0,5.0,70,0.00,,,0.00,weatherlink.com 1.10,2014-10-24 09:09:00,
2014-10-24 04:24:00,55.5,47.0,30.04,NNE,22,2.0,3.0,73,0.00,,,0.00,weatherlink.com 1.10,2014-10-24 09:24:00,
2014-10-24 04:39:00,55.1,47.0,30.04,NW,323,2.0,4.0,73,0.00,,,0.00,weatherlink.com 1.10,2014-10-24 09:39:00,
2014-10-24 04:54:00,54.8,47.0,30.05,North,360,2.0,6.0,74,0.00,,,0.00,weatherlink.com 1.10,2014-10-24 09:54:00,
2014-10-24 05:09:00,54.8,47.0,30.05,North,350,1.0,3.0,74,0.00,,,0.00,weatherlink.com 1.10,2014-10-24 10:09:00,
2014-10-24 05:24:00,54.4,47.0,30.05,NNW,332,2.0,3.0,75,0.00,,,0.00,weatherlink.com 1.10,2014-10-24 10:24:00,
2014-10-24 05:39:00,54.1,47.0,30.06,NNW,346,2.0,3.0,76,0.00,,,0.00,weatherlink.com 1.10,2014-10-24 10:39:00,
2014-10-24 05:54:00,53.9,47.0,30.06,NW,304,1.0,5.0,76,0.00,,,0.00,weatherlink.com 1.10,2014-10-24 10:54:00,
2014-10-24 06:09:00,54.2,46.0,30.07,NNE,13,2.0,6.0,75,0.00,,,0.00,weatherlink.com 1.10,2014-10-24 11:09:00,
2014-10-24 06:24:00,54.2,47.0,30.07,NNW,338,3.0,8.0,76,0.00,,,0.00,weatherlink.com 1.10,2014-10-24 11:24:00,
2014-10-24 06:39:00,54.1,47.0,30.07,North,355,1.0,3.0,76,0.00,,,0.00,weatherlink.com 1.10,2014-10-24 11:39:00,
2014-10-24 06:54:00,53.8,47.0,30.07,NNE,20,1.0,5.0,77,0.00,,,0.00,weatherlink.com 1.10,2014-10-24 11:54:00,
2014-10-24 07:09:00,53.8,47.0,30.07,NNW,338,4.0,5.0,78,0.00,,,0.00,weatherlink.com 1.10,2014-10-24 12:09:00,
2014-10-24 07:24:00,55.5,48.0,30.07,NNE,13,2.0,4.0,76,0.00,,,0.00,weatherlink.com 1.10,2014-10-24 12:24:00,
2014-10-24 07:39:00,58.4,49.0,30.07,North,9,1.0,5.0,71,0.00,,,0.00,weatherlink.com 1.10,2014-10-24 12:39:00,
2014-10-24 07:54:00,60.5,49.0,30.07,NE,34,4.0,9.0,65,0.00,,,0.00,weatherlink.com 1.10,2014-10-24 12:54:00,
2014-10-24 08:09:00,61.8,49.0,30.07,NNE,31,4.0,8.0,63,0.00,,,0.00,weatherlink.com 1.10,2014-10-24 13:09:00,
2014-10-24 08:24:00,61.4,48.0,30.08,NE,44,5.0,10.0,62,0.00,,,0.00,weatherlink.com 1.10,2014-10-24 13:24:00,
2014-10-24 08:39:00,61.4,48.0,30.08,NNE,30,5.0,11.0,62,0.00,,,0.00,weatherlink.com 1.10,2014-10-24 13:39:00,
2014-10-24 08:54:00,62.0,50.0,30.08,North,11,7.0,9.0,64,0.00,,,0.00,weatherlink.com 1.10,2014-10-24 13:54:00,
2014-10-24 09:10:00,63.5,50.0,30.08,ENE,57,4.0,5.0,61,0.00,,,0.00,weatherlink.com 1.10,2014-10-24 14:10:00,
2014-10-24 09:25:00,64.8,50.0,30.08,NNE,13,5.0,8.0,59,0.00,,,0.00,weatherlink.com 1.10,2014-10-24 14:25:00,
2014-10-24 09:40:00,65.7,49.0,30.08,NE,49,5.0,9.0,55,0.00,,,0.00,weatherlink.com 1.10,2014-10-24 14:40:00,
2014-10-24 09:55:00,66.3,47.0,30.07,NNE,30,8.0,10.0,51,0.00,,,0.00,weatherlink.com 1.10,2014-10-24 14:55:00,
2014-10-24 10:10:00,67.5,50.0,30.08,NNE,28,3.0,9.0,53,0.00,,,0.00,weatherlink.com 1.10,2014-10-24 15:10:00,
2014-10-24 10:25:00,67.8,49.0,30.08,NE,46,4.0,9.0,52,0.00,,,0.00,weatherlink.com 1.10,2014-10-24 15:25:00,